�N����,����,�g�[���i���ԁj���x,�g�[�����x,��g�[���i���ցj���x,����
 2003/07/01, 0:00,27,60,27.5,21.3
 2003/07/01, 0:15,27.4,59,27.3,21.5
 2003/07/01, 0:30,27.2,60,27.3,21.6
 2003/07/01, 0:45,27.2,60,27.4,21.8
 2003/07/01, 1:00,27.2,60,27.4,21.9
 2003/07/01, 1:15,27.4,59,27.2,22.1
 2003/07/01, 1:30,27.3,59,27,22.3
 2003/07/01, 1:45,27.2,60,27.1,22.5
 2003/07/01, 2:00,27,60,27,22.6
 2003/07/01, 2:15,27.1,61,27,22.7
 2003/07/01, 2:30,27.1,60,26.8,22.9
 2003/07/01, 2:45,27,63,26.6,23
 2003/07/01, 3:00,26.9,64,26.5,23.1
 2003/07/01, 3:15,26.9,64,26.4,23.2
 2003/07/01, 3:30,26.8,65,26.4,23.3
 2003/07/01, 3:45,26.8,65,26.4,23.4
 2003/07/01, 4:00,26.7,65,26.4,23.5
 2003/07/01, 4:15,26.7,65,26.4,23.7
 2003/07/01, 4:30,26.7,65,26.3,23.8
 2003/07/01, 4:45,26.6,65,26.3,23.9
 2003/07/01, 5:00,26.4,66,26.3,24
 2003/07/01, 5:15,26.5,65,26.2,24.1
 2003/07/01, 5:30,26.4,65,26.1,24.2
 2003/07/01, 5:45,26.2,66,25.8,24.8
 2003/07/01, 6:00,26.2,66,25.7,24.9
 2003/07/01, 6:15,26.1,66,25.7,23.1
 2003/07/01, 6:30,26.2,67,25.6,22
 2003/07/01, 6:45,26.2,68,25.8,22.1
 2003/07/01, 7:00,26.1,68,26.1,22.3
 2003/07/01, 7:15,26.4,67,26.2,21.4
 2003/07/01, 7:30,26.2,68,26.1,21.5
 2003/07/01, 7:45,26.6,68,26.3,21.6
 2003/07/01, 8:00,26.8,69,26.4,21.8
 2003/07/01, 8:15,27,70,26.4,21.9
 2003/07/01, 8:30,27,70,26.5,22
 2003/07/01, 8:45,27,70,26.5,22.2
 2003/07/01, 9:00,27,70,26.5,22.3
 2003/07/01, 9:15,27.1,70,26.5,22.4
 2003/07/01, 9:30,27.1,70,26.6,22.6
 2003/07/01, 9:45,27.1,70,26.6,22.7
 2003/07/01,10:00,27.1,70,26.6,22.8
 2003/07/01,10:15,27.2,71,26.6,22.9
 2003/07/01,10:30,27.2,71,26.6,23
 2003/07/01,10:45,27.2,71,26.6,23.1
 2003/07/01,11:00,27.2,71,26.6,23.2
 2003/07/01,11:15,27.1,72,26.7,23.4
 2003/07/01,11:30,27.2,71,26.7,23.5
 2003/07/01,11:45,27.2,71,26.7,23.6
 2003/07/01,12:00,27.3,71,26.7,23.7
 2003/07/01,12:15,27.3,71,26.7,23.8
 2003/07/01,12:30,27.4,71,26.7,23.9
 2003/07/01,12:45,27.4,70,26.7,24
 2003/07/01,13:00,27.4,70,26.8,24.1
 2003/07/01,13:15,27.4,70,26.8,24.2
 2003/07/01,13:30,27.3,71,26.8,24.2
 2003/07/01,13:45,27.3,71,26.8,24.3
 2003/07/01,14:00,27.3,70,26.8,24.4
 2003/07/01,14:15,27.3,70,26.8,24.5
 2003/07/01,14:30,27.3,71,26.8,24.6
 2003/07/01,14:45,27.3,71,26.8,24.7
 2003/07/01,15:00,27.3,71,26.8,24.7
 2003/07/01,15:15,27.3,70,26.8,24.8
 2003/07/01,15:30,27.3,71,26.8,24.9
 2003/07/01,15:45,27.2,70,26.8,25
 2003/07/01,16:00,27.2,70,26.8,25
 2003/07/01,16:15,27.2,70,26.8,25.1
 2003/07/01,16:30,27.1,70,26.8,25.2
 2003/07/01,16:45,27.1,70,26.8,25.3
 2003/07/01,17:00,27,70,26.7,25.4
 2003/07/01,17:15,27,70,26.7,25.5
 2003/07/01,17:30,27,70,26.7,24.3
 2003/07/01,17:45,27,71,26.7,24.4
 2003/07/01,18:00,27.1,70,26.7,24.5
 2003/07/01,18:15,27.2,69,26.6,24.6
 2003/07/01,18:30,27.1,69,26.6,24.7
 2003/07/01,18:45,27.1,69,26.6,24.8
 2003/07/01,19:00,27.2,69,26.5,24.8
 2003/07/01,19:15,27.1,68,26.5,24.9
 2003/07/01,19:30,27.2,67,26.4,25
 2003/07/01,19:45,27,67,26.4,23.6
 2003/07/01,20:00,26.9,66,26.3,22.8
 2003/07/01,20:15,26.9,66,26.3,19.3
 2003/07/01,20:30,26.9,66,26.2,19.6
 2003/07/01,20:45,26.9,66,26.2,19.8
 2003/07/01,21:00,27,67,26.2,20.2
 2003/07/01,21:15,27,68,26.2,20.8
 2003/07/01,21:30,27.1,68,26.2,21.2
 2003/07/01,21:45,27,68,26.2,21.3
 2003/07/01,22:00,27,68,26.2,21.5
 2003/07/01,22:15,27,69,26.2,21.6
 2003/07/01,22:30,27,69,26.3,21.7
 2003/07/01,22:45,27,69,26.2,21.9
 2003/07/01,23:00,27.1,70,26.3,21.9
 2003/07/01,23:15,27.1,70,26.3,22
 2003/07/01,23:30,27,69,26.2,22.2
 2003/07/01,23:45,26.9,69,26.2,22.3
 2003/07/02, 0:00,26.7,70,26.2,22.4
 2003/07/02, 0:15,26.6,69,26.1,22.5
 2003/07/02, 0:30,26.5,69,26.1,22.6
 2003/07/02, 0:45,26.4,69,26,22.7
 2003/07/02, 1:00,26.4,69,26,22.8
 2003/07/02, 1:15,26.3,69,25.9,23
 2003/07/02, 1:30,26.2,69,25.9,23.1
 2003/07/02, 1:45,26.2,69,25.8,23.2
 2003/07/02, 2:00,26.2,69,25.8,23.3
 2003/07/02, 2:15,26.1,69,25.8,23.4
 2003/07/02, 2:30,26,69,25.7,23.5
 2003/07/02, 2:45,26,69,25.7,23.6
 2003/07/02, 3:00,25.9,69,25.6,23.7
 2003/07/02, 3:15,25.9,69,25.6,23.8
 2003/07/02, 3:30,25.8,69,25.5,23.9
 2003/07/02, 3:45,25.8,69,25.5,24
 2003/07/02, 4:00,25.7,69,25.5,24
 2003/07/02, 4:15,25.6,68,25.5,24.1
 2003/07/02, 4:30,25.5,69,25.4,24.2
 2003/07/02, 4:45,25.5,68,25.4,24.3
 2003/07/02, 5:00,25.4,68,25.3,24.4
 2003/07/02, 5:15,25.4,69,25.3,24.4
 2003/07/02, 5:30,25.4,69,25.3,24.5
 2003/07/02, 5:45,25.4,70,25.3,24.4
 2003/07/02, 6:00,25.4,69,25.2,24.5
 2003/07/02, 6:15,25.3,69,25.2,24.6
 2003/07/02, 6:30,24.6,70,25.2,21.5
 2003/07/02, 6:45,24.5,69,25.2,21.6
 2003/07/02, 7:00,24.6,70,25.2,21.8
 2003/07/02, 7:15,24.8,70,25.3,21.9
 2003/07/02, 7:30,25.1,70,25.2,20.1
 2003/07/02, 7:45,25.1,69,25.2,20.3
 2003/07/02, 8:00,25.4,69,25.2,20.5
 2003/07/02, 8:15,25.5,68,25.2,21.2
 2003/07/02, 8:30,25.7,64,25.1,21.4
 2003/07/02, 8:45,25.9,62,25,21.2
 2003/07/02, 9:00,25.8,62,24.9,21.4
 2003/07/02, 9:15,25.6,62,24.8,21.5
 2003/07/02, 9:30,25.5,60,24.8,21.6
 2003/07/02, 9:45,25.5,60,24.8,21.7
 2003/07/02,10:00,25.6,60,24.8,21.8
 2003/07/02,10:15,25.6,60,24.8,22
 2003/07/02,10:30,25.7,60,24.8,22.1
 2003/07/02,10:45,25.7,60,24.8,22.2
 2003/07/02,11:00,25.6,59,24.8,22.3
 2003/07/02,11:15,25.9,59,24.9,22.4
 2003/07/02,11:30,25.9,59,24.9,22.5
 2003/07/02,11:45,25.9,59,24.9,22.6
 2003/07/02,12:00,26,59,25,22.7
 2003/07/02,12:15,26.1,58,25,22.8
 2003/07/02,12:30,26.1,58,25,22.9
 2003/07/02,12:45,26.2,58,25.1,23
 2003/07/02,13:00,26.3,57,25.2,23.1
 2003/07/02,13:15,26.4,56,25.3,23.2
 2003/07/02,13:30,26.4,56,25.3,23.3
 2003/07/02,13:45,26.6,56,25.4,23.4
 2003/07/02,14:00,26.6,55,25.5,23.4
 2003/07/02,14:15,26.7,55,25.6,23.5
 2003/07/02,14:30,26.8,54,25.7,23.6
 2003/07/02,14:45,26.8,53,25.8,23.7
 2003/07/02,15:00,27,53,25.9,23.8
 2003/07/02,15:15,27,53,26,24.4
 2003/07/02,15:30,27,53,26,24.5
 2003/07/02,15:45,27.1,53,26.1,24.5
 2003/07/02,16:00,27.3,54,26.3,24.6
 2003/07/02,16:15,27.3,53,26.3,24.6
 2003/07/02,16:30,27.4,52,26.4,24.7
 2003/07/02,16:45,27.5,53,26.5,24.8
 2003/07/02,17:00,27.5,52,26.5,24.8
 2003/07/02,17:15,27.6,52,26.6,24.9
 2003/07/02,17:30,27.6,52,26.7,25
 2003/07/02,17:45,27.5,53,26.7,24.6
 2003/07/02,18:00,27.5,53,26.7,24.7
 2003/07/02,18:15,27.5,53,26.7,24.8
 2003/07/02,18:30,27.3,53,26.7,24.8
 2003/07/02,18:45,27.2,53,26.7,24.9
 2003/07/02,19:00,27.1,53,26.6,23.1
 2003/07/02,19:15,27,54,26.5,23.2
 2003/07/02,19:30,27,53,26.4,23.4
 2003/07/02,19:45,27,53,26.3,23.5
 2003/07/02,20:00,27,52,26.2,22
 2003/07/02,20:15,26.8,51,26.1,21.4
 2003/07/02,20:30,26.6,51,26,21.6
 2003/07/02,20:45,26.6,51,26.2,21.7
 2003/07/02,21:00,26.7,51,26,21.9
 2003/07/02,21:15,26.7,53,26,22
 2003/07/02,21:30,26.9,53,26,22.1
 2003/07/02,21:45,26.8,53,26.1,22.3
 2003/07/02,22:00,26.6,54,26,22.4
 2003/07/02,22:15,26.7,55,26,22.5
 2003/07/02,22:30,26.6,55,26,22.6
 2003/07/02,22:45,26.5,56,26,22.8
 2003/07/02,23:00,26.8,56,26,22.9
 2003/07/02,23:15,26.7,56,26,21.3
 2003/07/02,23:30,26.1,57,26,21.4
 2003/07/02,23:45,26.3,58,26,21.9
 2003/07/03, 0:00,26.3,57,26,22
 2003/07/03, 0:15,26.5,57,25.9,22.2
 2003/07/03, 0:30,26.3,56,25.9,22.3
 2003/07/03, 0:45,26.2,57,25.8,22.4
 2003/07/03, 1:00,26.2,57,25.8,22.5
 2003/07/03, 1:15,26.1,57,25.8,22.6
 2003/07/03, 1:30,26.1,57,25.8,22.8
 2003/07/03, 1:45,26,57,25.7,22.9
 2003/07/03, 2:00,26,57,25.7,23
 2003/07/03, 2:15,25.9,57,25.6,23.1
 2003/07/03, 2:30,25.8,58,25.6,23.2
 2003/07/03, 2:45,25.7,58,25.5,23.3
 2003/07/03, 3:00,25.6,59,25.4,23.4
 2003/07/03, 3:15,25.6,59,25.4,23.4
 2003/07/03, 3:30,25.4,59,25.3,23.5
 2003/07/03, 3:45,25.2,59,25.3,23.6
 2003/07/03, 4:00,25.2,60,25.2,23.7
 2003/07/03, 4:15,25.3,60,25.2,23.6
 2003/07/03, 4:30,25.1,60,25.2,23.7
 2003/07/03, 4:45,25,60,25.1,23.7
 2003/07/03, 5:00,25,61,25.1,23.8
 2003/07/03, 5:15,24.8,61,25,23.9
 2003/07/03, 5:30,24.8,61,25,24
 2003/07/03, 5:45,24.9,62,25,24
 2003/07/03, 6:00,24.8,62,25,24.1
 2003/07/03, 6:15,24.6,62,25,24.2
 2003/07/03, 6:30,24.5,64,25,22.3
 2003/07/03, 6:45,24.5,64,24.9,21.8
 2003/07/03, 7:00,24.5,65,25.2,21.9
 2003/07/03, 7:15,24.9,64,25.1,19.3
 2003/07/03, 7:30,25.1,64,25,19.5
 2003/07/03, 7:45,25.1,63,25,19.6
 2003/07/03, 8:00,25.2,63,25,19.8
 2003/07/03, 8:15,25.4,65,25,19.9
 2003/07/03, 8:30,25.6,65,25.1,20.1
 2003/07/03, 8:45,25.8,65,25.1,20.3
 2003/07/03, 9:00,25.8,65,25.2,20.4
 2003/07/03, 9:15,26,64,25.2,20.6
 2003/07/03, 9:30,26,64,25.2,20.7
 2003/07/03, 9:45,26,64,25.3,20.9
 2003/07/03,10:00,26.1,64,25.3,21
 2003/07/03,10:15,26.1,64,25.3,21.2
 2003/07/03,10:30,26.1,65,25.3,21.3
 2003/07/03,10:45,26.1,65,25.3,21.4
 2003/07/03,11:00,26.1,66,25.3,21.6
 2003/07/03,11:15,26.1,66,25.4,21.7
 2003/07/03,11:30,26.2,67,25.4,21.8
 2003/07/03,11:45,26.2,67,25.4,22
 2003/07/03,12:00,26.2,67,25.4,22.1
 2003/07/03,12:15,26.2,67,25.5,22.2
 2003/07/03,12:30,26.3,68,25.5,22.3
 2003/07/03,12:45,26.2,69,25.5,22.5
 2003/07/03,13:00,26.1,69,25.5,22.6
 2003/07/03,13:15,26.1,69,25.5,22.7
 2003/07/03,13:30,26,70,25.5,22.8
 2003/07/03,13:45,26,70,25.5,22.9
 2003/07/03,14:00,25.9,70,25.5,23
 2003/07/03,14:15,25.9,71,25.4,23.1
 2003/07/03,14:30,25.8,71,25.4,23.2
 2003/07/03,14:45,25.8,71,25.4,23.3
 2003/07/03,15:00,25.8,70,25.4,23.4
 2003/07/03,15:15,25.8,70,25.4,23.5
 2003/07/03,15:30,25.9,70,25.4,24.3
 2003/07/03,15:45,25.8,70,25.4,24.3
 2003/07/03,16:00,25.8,70,25.4,24.4
 2003/07/03,16:15,25.8,70,25.4,24.4
 2003/07/03,16:30,25.9,70,25.4,24.5
 2003/07/03,16:45,25.9,70,25.4,24.5
 2003/07/03,17:00,25.9,71,25.4,24.6
 2003/07/03,17:15,25.9,71,25.4,24.6
 2003/07/03,17:30,25.8,71,25.4,24.3
 2003/07/03,17:45,25.8,71,25.4,24.4
 2003/07/03,18:00,25.8,71,25.4,24.4
 2003/07/03,18:15,25.9,72,25.4,24.5
 2003/07/03,18:30,26,72,25.4,24.6
 2003/07/03,18:45,25.9,72,25.4,22.7
 2003/07/03,19:00,25.9,73,25.4,22.8
 2003/07/03,19:15,25.9,74,25.4,22.9
 2003/07/03,19:30,26,74,25.4,23
 2003/07/03,19:45,26.1,74,25.4,23.1
 2003/07/03,20:00,26.1,73,25.4,23.2
 2003/07/03,20:15,26.2,73,25.4,23.3
 2003/07/03,20:30,26.3,73,25.4,22.6
 2003/07/03,20:45,26.3,74,25.5,22.7
 2003/07/03,21:00,26.3,74,25.5,20.9
 2003/07/03,21:15,26.4,74,25.5,21.1
 2003/07/03,21:30,26.4,73,25.5,21.3
 2003/07/03,21:45,26.6,73,25.6,21.4
 2003/07/03,22:00,26.6,72,25.6,21.6
 2003/07/03,22:15,26.7,72,25.6,20.4
 2003/07/03,22:30,26.8,73,25.7,20.6
 2003/07/03,22:45,26.6,74,25.7,20.8
 2003/07/03,23:00,26.5,76,25.7,20.9
 2003/07/03,23:15,26.5,76,25.7,21
 2003/07/03,23:30,26.4,77,25.7,21.2
 2003/07/03,23:45,26.4,78,25.7,21.4
 2003/07/04, 0:00,26.3,78,25.7,21.5
 2003/07/04, 0:15,26.2,79,25.7,21.6
 2003/07/04, 0:30,26.3,79,25.7,21.8
 2003/07/04, 0:45,26.2,79,25.7,21.9
 2003/07/04, 1:00,26.2,79,25.7,22
 2003/07/04, 1:15,26.1,79,25.7,22.2
 2003/07/04, 1:30,26.1,80,25.7,22.4
 2003/07/04, 1:45,26.1,79,25.7,22.4
 2003/07/04, 2:00,26,79,25.7,22.6
 2003/07/04, 2:15,26,79,25.6,22.7
 2003/07/04, 2:30,25.9,80,25.6,22.8
 2003/07/04, 2:45,26,79,25.6,22.9
 2003/07/04, 3:00,25.9,79,25.6,23
 2003/07/04, 3:15,25.9,79,25.6,23.1
 2003/07/04, 3:30,25.9,79,25.6,23.2
 2003/07/04, 3:45,25.9,79,25.6,23.3
 2003/07/04, 4:00,25.9,79,25.6,23.4
 2003/07/04, 4:15,25.9,78,25.5,23.5
 2003/07/04, 4:30,25.8,79,25.5,24.2
 2003/07/04, 4:45,25.8,78,25.5,24.3
 2003/07/04, 5:00,25.9,78,25.5,24.3
 2003/07/04, 5:15,26,77,25.5,24.4
 2003/07/04, 5:30,26,77,25.6,24.5
 2003/07/04, 5:45,26,77,25.5,24.5
 2003/07/04, 6:00,25.9,76,25.5,24.5
 2003/07/04, 6:15,26,76,25.5,24.6
 2003/07/04, 6:30,25.8,77,25.5,22.1
 2003/07/04, 6:45,25.7,77,25.5,22.3
 2003/07/04, 7:00,25.8,75,25.5,22.4
 2003/07/04, 7:15,25.8,75,25.6,21
 2003/07/04, 7:30,25.9,74,25.5,21.1
 2003/07/04, 7:45,26,74,25.6,21.3
 2003/07/04, 8:00,26,73,25.7,21.4
 2003/07/04, 8:15,26.1,72,25.6,21.6
 2003/07/04, 8:30,26.3,72,25.7,21.7
 2003/07/04, 8:45,26.3,71,25.7,21.8
 2003/07/04, 9:00,26.4,71,25.8,22
 2003/07/04, 9:15,26.5,70,25.8,22.1
 2003/07/04, 9:30,26.6,70,25.8,22.3
 2003/07/04, 9:45,26.7,69,25.9,22.4
 2003/07/04,10:00,26.8,68,26,22.5
 2003/07/04,10:15,26.9,68,26,22.6
 2003/07/04,10:30,26.9,68,26.1,22.7
 2003/07/04,10:45,27,67,26.1,22.9
 2003/07/04,11:00,27.1,66,26.1,23
 2003/07/04,11:15,27.1,64,26.1,23.1
 2003/07/04,11:30,27.2,64,26.2,23.2
 2003/07/04,11:45,27.3,64,26.2,23.3
 2003/07/04,12:00,27.4,62,26.3,23.4
 2003/07/04,12:15,27.4,62,26.3,23.5
 2003/07/04,12:30,27.5,61,26.4,23.6
 2003/07/04,12:45,27.5,60,26.4,23.7
 2003/07/04,13:00,27.6,59,26.4,23.8
 2003/07/04,13:15,27.6,60,26.5,23.9
 2003/07/04,13:30,27.7,60,26.5,24
 2003/07/04,13:45,27.8,59,26.6,24.1
 2003/07/04,14:00,27.8,59,26.7,24.1
 2003/07/04,14:15,27.8,59,26.7,24.2
 2003/07/04,14:30,27.8,59,26.7,24.3
 2003/07/04,14:45,27.9,59,26.7,24.4
 2003/07/04,15:00,27.9,59,26.8,24.5
 2003/07/04,15:15,28,58,26.8,24.5
 2003/07/04,15:30,27.9,58,26.8,24.6
 2003/07/04,15:45,27.9,58,26.8,24.7
 2003/07/04,16:00,27.9,58,26.8,24.7
 2003/07/04,16:15,27.9,58,26.8,24.8
 2003/07/04,16:30,27.8,59,26.8,24.9
 2003/07/04,16:45,27.8,59,26.8,25
 2003/07/04,17:00,27.7,58,26.8,25.1
 2003/07/04,17:15,27.7,58,26.8,25.2
 2003/07/04,17:30,27.6,57,26.6,25.3
 2003/07/04,17:45,27.4,57,26.4,25.3
 2003/07/04,18:00,27.4,57,26.3,25.3
 2003/07/04,18:15,27.4,58,26.2,25.5
 2003/07/04,18:30,27.3,58,26.1,25.5
 2003/07/04,18:45,27.1,58,26,25.6
 2003/07/04,19:00,27,59,26.1,25.6
 2003/07/04,19:15,26.9,59,26.3,24.5
 2003/07/04,19:30,27,59,26.4,22.1
 2003/07/04,19:45,27,59,26.4,22
 2003/07/04,20:00,27,59,26.4,22.2
 2003/07/04,20:15,26.9,59,26.4,21.3
 2003/07/04,20:30,27.1,58,26.4,21.5
 2003/07/04,20:45,27,58,26.4,21.6
 2003/07/04,21:00,27,58,26.4,21.8
 2003/07/04,21:15,26.8,58,26.6,21.9
 2003/07/04,21:30,26.6,59,26.5,22.5
 2003/07/04,21:45,26.4,59,26.3,22.6
 2003/07/04,22:00,26.1,61,26.2,22.7
 2003/07/04,22:15,26.1,61,26.1,22.8
 2003/07/04,22:30,25.7,60,26.1,23
 2003/07/04,22:45,26,62,26.1,22
 2003/07/04,23:00,25.9,62,26,22.1
 2003/07/04,23:15,25.8,63,26,22.3
 2003/07/04,23:30,25.8,62,25.9,22.4
 2003/07/04,23:45,25.5,63,25.9,22.5
 2003/07/05, 0:00,25.4,65,25.9,22.6
 2003/07/05, 0:15,25.4,64,25.8,22.7
 2003/07/05, 0:30,25.1,64,25.8,22.8
 2003/07/05, 0:45,25.1,64,25.8,22.9
 2003/07/05, 1:00,25.1,65,25.7,23.1
 2003/07/05, 1:15,24.9,65,25.7,23.2
 2003/07/05, 1:30,24.8,67,25.6,23.3
 2003/07/05, 1:45,24.8,66,25.5,23.4
 2003/07/05, 2:00,25,65,25.4,23.4
 2003/07/05, 2:15,24.5,66,25.3,23.5
 2003/07/05, 2:30,24.8,65,25.2,23.6
 2003/07/05, 2:45,24.8,65,25.1,23.7
 2003/07/05, 3:00,24.8,65,24.9,23.8
 2003/07/05, 3:15,24.6,65,24.9,23.9
 2003/07/05, 3:30,24.4,67,24.9,24
 2003/07/05, 3:45,24.4,67,24.9,24.2
 2003/07/05, 4:00,24.4,67,24.9,24.2
 2003/07/05, 4:15,24.4,68,24.9,24.3
 2003/07/05, 4:30,24.2,69,24.9,24.4
 2003/07/05, 4:45,24.3,69,24.9,24.4
 2003/07/05, 5:00,24.3,68,24.9,24.5
 2003/07/05, 5:15,24.2,69,24.9,24.5
 2003/07/05, 5:30,24.3,69,24.9,24.6
 2003/07/05, 5:45,24.2,69,24.9,24.7
 2003/07/05, 6:00,24.2,70,24.9,24.3
 2003/07/05, 6:15,24.3,70,24.9,24.4
 2003/07/05, 6:30,24.8,68,24.9,22.6
 2003/07/05, 6:45,25,68,24.9,22.8
 2003/07/05, 7:00,25.1,69,24.9,22.9
 2003/07/05, 7:15,25.2,68,25,23
 2003/07/05, 7:30,25.3,69,25,23.1
 2003/07/05, 7:45,25.4,69,25.1,22.7
 2003/07/05, 8:00,25.6,69,25.1,22.8
 2003/07/05, 8:15,25.6,68,25.1,20.4
 2003/07/05, 8:30,25.6,68,25.1,20.5
 2003/07/05, 8:45,25.6,68,25.1,20.6
 2003/07/05, 9:00,25.8,68,25.1,21.2
 2003/07/05, 9:15,25.9,68,25.1,21.3
 2003/07/05, 9:30,26,68,25.1,21.4
 2003/07/05, 9:45,26,68,25.2,21.6
 2003/07/05,10:00,26.1,68,25.2,22.3
 2003/07/05,10:15,26.1,68,25.2,22.4
 2003/07/05,10:30,26.2,68,25.2,22.5
 2003/07/05,10:45,26.2,68,25.2,22.6
 2003/07/05,11:00,26.3,68,25.2,22.6
 2003/07/05,11:15,26.4,68,25.2,22.7
 2003/07/05,11:30,26.5,67,25.3,22.9
 2003/07/05,11:45,26.5,67,25.3,22.9
 2003/07/05,12:00,26.5,68,25.3,23
 2003/07/05,12:15,26.4,70,25.4,23.1
 2003/07/05,12:30,26.4,70,25.4,23.2
 2003/07/05,12:45,26.5,70,25.4,23.3
 2003/07/05,13:00,26.5,70,25.4,23.4
 2003/07/05,13:15,27,69,25.5,23.5
 2003/07/05,13:30,27.1,68,25.6,23.6
 2003/07/05,13:45,27.3,68,25.7,23.6
 2003/07/05,14:00,27.2,68,25.8,23.4
 2003/07/05,14:15,27.1,68,25.8,23
 2003/07/05,14:30,26.9,72,25.8,23
 2003/07/05,14:45,27.1,69,25.9,23.1
 2003/07/05,15:00,27.2,69,25.9,23.2
 2003/07/05,15:15,27.2,69,26,23.3
 2003/07/05,15:30,27.2,69,26,23.4
 2003/07/05,15:45,27.4,70,26.1,23.5
 2003/07/05,16:00,27.1,72,26.1,23.6
 2003/07/05,16:15,26.9,74,26.1,23.6
 2003/07/05,16:30,26.9,74,26.1,23.7
 2003/07/05,16:45,27,74,26.2,23.8
 2003/07/05,17:00,26.9,75,26.2,23.9
 2003/07/05,17:15,26.9,74,26.2,24
 2003/07/05,17:30,26.9,75,26.2,24.1
 2003/07/05,17:45,26.8,76,26.2,24.1
 2003/07/05,18:00,26.6,77,26.2,22
 2003/07/05,18:15,26.6,77,26.2,22.2
 2003/07/05,18:30,26.5,79,26.2,22.4
 2003/07/05,18:45,27,77,26.2,22.5
 2003/07/05,19:00,27.2,77,26.3,21.2
 2003/07/05,19:15,26.9,78,26.3,20.8
 2003/07/05,19:30,27,77,26.3,20.7
 2003/07/05,19:45,27.1,77,26.4,20.8
 2003/07/05,20:00,27.2,76,26.4,21
 2003/07/05,20:15,27.4,74,26.4,21.8
 2003/07/05,20:30,27.5,74,26.5,21.5
 2003/07/05,20:45,27.6,74,26.5,21.5
 2003/07/05,21:00,27.6,73,26.6,20.8
 2003/07/05,21:15,27.6,73,26.6,21
 2003/07/05,21:30,27.7,73,26.6,21.1
 2003/07/05,21:45,27.7,73,26.6,21.3
 2003/07/05,22:00,27.8,73,26.6,21.3
 2003/07/05,22:15,27.9,73,26.6,21.4
 2003/07/05,22:30,28.1,73,26.7,21.6
 2003/07/05,22:45,28.1,73,26.7,21.6
 2003/07/05,23:00,28.2,73,26.8,21.7
 2003/07/05,23:15,28,73,26.7,21.9
 2003/07/05,23:30,27.7,74,26.7,22
 2003/07/05,23:45,27.6,74,26.7,22.4
 2003/07/06, 0:00,27.5,74,26.7,22.5
 2003/07/06, 0:15,27.5,74,26.7,22.6
 2003/07/06, 0:30,27.4,74,26.7,22.7
 2003/07/06, 0:45,27.3,74,26.6,22.8
 2003/07/06, 1:00,27.3,74,26.6,22.9
 2003/07/06, 1:15,27.3,74,26.6,23
 2003/07/06, 1:30,27.2,74,26.6,23.1
 2003/07/06, 1:45,27.2,74,26.5,23.2
 2003/07/06, 2:00,27.1,75,26.5,23.4
 2003/07/06, 2:15,27,75,26.5,23.5
 2003/07/06, 2:30,27,75,26.5,23.6
 2003/07/06, 2:45,27,75,26.4,23.7
 2003/07/06, 3:00,26.9,75,26.4,23.8
 2003/07/06, 3:15,26.9,76,26.4,23.9
 2003/07/06, 3:30,26.9,75,26.4,24
 2003/07/06, 3:45,26.8,76,26.4,24.1
 2003/07/06, 4:00,26.9,76,26.3,24.2
 2003/07/06, 4:15,26.8,76,26.3,24.3
 2003/07/06, 4:30,26.8,76,26.3,24.4
 2003/07/06, 4:45,26.7,76,26.3,24.4
 2003/07/06, 5:00,26.7,76,26.3,24.5
 2003/07/06, 5:15,26.7,76,26.2,24.6
 2003/07/06, 5:30,26.7,76,26.2,24.7
 2003/07/06, 5:45,26.6,76,26.2,24.7
 2003/07/06, 6:00,26.6,76,26.2,23.8
 2003/07/06, 6:15,26.6,76,26.2,23.8
 2003/07/06, 6:30,26.5,77,26.1,23.7
 2003/07/06, 6:45,26.6,77,26.1,23.7
 2003/07/06, 7:00,26.7,76,26.1,23.8
 2003/07/06, 7:15,26.6,76,26.1,23.9
 2003/07/06, 7:30,26.8,75,26.1,24
 2003/07/06, 7:45,26.8,75,26.2,24.1
 2003/07/06, 8:00,27,75,26.2,24.1
 2003/07/06, 8:15,27.1,74,26.2,24.2
 2003/07/06, 8:30,27.1,74,26.2,24.3
 2003/07/06, 8:45,27.1,74,26.2,21.3
 2003/07/06, 9:00,27.3,73,26.2,21.4
 2003/07/06, 9:15,27.3,73,26.3,21.5
 2003/07/06, 9:30,27.3,73,26.3,20.6
 2003/07/06, 9:45,27.3,73,26.3,20.7
 2003/07/06,10:00,27.4,73,26.3,20.9
 2003/07/06,10:15,27.5,73,26.4,21.1
 2003/07/06,10:30,27.9,71,26.4,21.2
 2003/07/06,10:45,27.9,71,26.5,22
 2003/07/06,11:00,28,71,26.5,21.5
 2003/07/06,11:15,28.1,71,26.5,21.5
 2003/07/06,11:30,28.2,70,26.5,21.6
 2003/07/06,11:45,28.4,69,26.5,21.7
 2003/07/06,12:00,28.6,69,26.7,21.8
 2003/07/06,12:15,28.7,67,26.7,22
 2003/07/06,12:30,28.9,67,26.7,22.1
 2003/07/06,12:45,28.6,66,26.8,22.2
 2003/07/06,13:00,28.6,66,26.9,22.4
 2003/07/06,13:15,28.5,66,27,22.6
 2003/07/06,13:30,28.5,66,27,22.7
 2003/07/06,13:45,28.4,67,27,22.8
 2003/07/06,14:00,28.6,67,27.1,22.9
 2003/07/06,14:15,28.6,68,27.2,23
 2003/07/06,14:30,28.7,65,27.1,23.1
 2003/07/06,14:45,28.8,65,27.2,22.7
 2003/07/06,15:00,28.6,65,27.2,22.1
 2003/07/06,15:15,28.7,64,27.2,22.1
 2003/07/06,15:30,28.7,64,27.2,22.2
 2003/07/06,15:45,28.5,64,27.2,22.3
 2003/07/06,16:00,28.5,64,27.3,22.4
 2003/07/06,16:15,28.5,64,27.3,22.9
 2003/07/06,16:30,28.3,65,27.2,22.5
 2003/07/06,16:45,28.2,65,27.1,22.6
 2003/07/06,17:00,28.2,65,27.2,22.7
 2003/07/06,17:15,28.5,65,27.2,22.8
 2003/07/06,17:30,28.6,66,27.2,22.9
 2003/07/06,17:45,28.9,67,27.2,23
 2003/07/06,18:00,28.6,66,27.2,23.2
 2003/07/06,18:15,28.3,68,27.2,23.3
 2003/07/06,18:30,28.2,68,27.2,23.4
 2003/07/06,18:45,28.1,70,27.2,23.5
 2003/07/06,19:00,28,70,27.2,23.6
 2003/07/06,19:15,27.6,71,27.2,21.7
 2003/07/06,19:30,27.8,70,27.2,22
 2003/07/06,19:45,27.6,71,27.2,21.6
 2003/07/06,20:00,27.8,71,27.2,21.8
 2003/07/06,20:15,28.1,69,27.2,21.9
 2003/07/06,20:30,28.2,70,27.3,22.1
 2003/07/06,20:45,28.2,66,27.3,22.2
 2003/07/06,21:00,28.2,64,27.2,22.3
 2003/07/06,21:15,28.2,63,27.2,22.5
 2003/07/06,21:30,28.2,63,27.2,23.1
 2003/07/06,21:45,28.1,63,27.2,23.2
 2003/07/06,22:00,28,64,27.2,23.4
 2003/07/06,22:15,28.1,65,27.1,23.5
 2003/07/06,22:30,28.2,65,27.2,23.6
 2003/07/06,22:45,28.2,68,27.2,23.7
 2003/07/06,23:00,28.2,69,27.2,23.8
 2003/07/06,23:15,28.2,70,27.3,23.9
 2003/07/06,23:30,28.2,70,27.3,24
 2003/07/06,23:45,28.2,71,27.4,23.6
 2003/07/07, 0:00,28.2,71,27.4,23.8
 2003/07/07, 0:15,28.1,71,27.4,23.9
 2003/07/07, 0:30,28.1,71,27.4,24
 2003/07/07, 0:45,28.1,71,27.4,24.1
 2003/07/07, 1:00,28.1,72,27.4,24.2
 2003/07/07, 1:15,28,72,27.4,24.3
 2003/07/07, 1:30,28,72,27.3,24.3
 2003/07/07, 1:45,27.9,72,27.3,24.4
 2003/07/07, 2:00,27.9,72,27.3,24.5
 2003/07/07, 2:15,27.9,73,27.3,24.6
 2003/07/07, 2:30,27.8,73,27.3,24.7
 2003/07/07, 2:45,27.8,73,27.3,24.8
 2003/07/07, 3:00,27.8,73,27.3,24.9
 2003/07/07, 3:15,27.8,73,27.2,25
 2003/07/07, 3:30,27.7,73,27.2,25.1
 2003/07/07, 3:45,27.7,73,27.2,25.1
 2003/07/07, 4:00,27.7,73,27.2,25.2
 2003/07/07, 4:15,27.6,73,27.2,25.3
 2003/07/07, 4:30,27.5,73,27.2,25.4
 2003/07/07, 4:45,27.5,73,27.1,25.5
 2003/07/07, 5:00,27.5,73,27.1,25.6
 2003/07/07, 5:15,27.5,73,27.1,25.7
 2003/07/07, 5:30,27.5,73,27.1,25.8
 2003/07/07, 5:45,27.4,74,27.1,25.5
 2003/07/07, 6:00,27.5,73,27,25.6
 2003/07/07, 6:15,27,74,27,25.6
 2003/07/07, 6:30,26.9,76,27,21.9
 2003/07/07, 6:45,26.9,77,27,22.1
 2003/07/07, 7:00,27,77,27,22.3
 2003/07/07, 7:15,27,77,27.2,21.2
 2003/07/07, 7:30,27.2,76,27.4,21.3
 2003/07/07, 7:45,27.3,75,27.5,20.9
 2003/07/07, 8:00,27.3,77,27.4,21.1
 2003/07/07, 8:15,27.4,77,27.3,21.3
 2003/07/07, 8:30,27.6,76,27.2,21.4
 2003/07/07, 8:45,27.7,76,27.2,21.6
 2003/07/07, 9:00,27.7,76,27.2,21.7
 2003/07/07, 9:15,27.7,76,27.2,21.9
 2003/07/07, 9:30,27.8,76,27.2,22.1
 2003/07/07, 9:45,27.9,75,27.2,22.2
 2003/07/07,10:00,28,75,27.2,22.4
 2003/07/07,10:15,28.1,74,27.2,22.5
 2003/07/07,10:30,28.2,74,27.3,22.6
 2003/07/07,10:45,28.4,74,27.3,22.8
 2003/07/07,11:00,28.4,74,27.4,22.9
 2003/07/07,11:15,28.4,74,27.4,23
 2003/07/07,11:30,28.4,74,27.4,23.2
 2003/07/07,11:45,28.4,74,27.5,23.3
 2003/07/07,12:00,28.5,74,27.5,23.4
 2003/07/07,12:15,28.5,73,27.5,23.5
 2003/07/07,12:30,28.5,73,27.6,23.7
 2003/07/07,12:45,28.6,73,27.6,23.8
 2003/07/07,13:00,28.6,73,27.6,23.9
 2003/07/07,13:15,28.7,73,27.7,24
 2003/07/07,13:30,28.7,73,27.7,24.2
 2003/07/07,13:45,28.8,73,27.8,24.3
 2003/07/07,14:00,28.8,72,27.8,24.3
 2003/07/07,14:15,28.7,70,27.9,24.4
 2003/07/07,14:30,28.8,69,27.8,24.5
 2003/07/07,14:45,28.7,69,27.8,24.6
 2003/07/07,15:00,28.8,68,27.8,24.7
 2003/07/07,15:15,28.6,69,27.8,24.3
 2003/07/07,15:30,28.8,69,27.8,24.4
 2003/07/07,15:45,28.6,69,27.8,24.5
 2003/07/07,16:00,28.7,69,27.9,24.6
 2003/07/07,16:15,28.8,69,27.9,24.9
 2003/07/07,16:30,28.8,69,27.9,24.9
 2003/07/07,16:45,28.8,68,27.9,25
 2003/07/07,17:00,28.9,68,28,25.1
 2003/07/07,17:15,28.8,66,28,25.1
 2003/07/07,17:30,28.8,67,28,25.3
 2003/07/07,17:45,28.8,68,28,25.3
 2003/07/07,18:00,28.6,69,28,25.4
 2003/07/07,18:15,28.7,69,28,25.5
 2003/07/07,18:30,28.6,70,28,25.6
 2003/07/07,18:45,28.5,70,28,25.7
 2003/07/07,19:00,28.4,70,28,25.8
 2003/07/07,19:15,28.5,70,28,25.9
 2003/07/07,19:30,28.6,70,28,25.9
 2003/07/07,19:45,28.8,69,28,26
 2003/07/07,20:00,28.9,70,28,26.1
 2003/07/07,20:15,28.7,71,27.9,26.3